Regional Weather Roundup
Issued by NWS

Home | Current Version | Previous Version | Text Only | Print | Product List | Glossary Off
Versions: 1 2 3 4 5 6 7 8 9 10 11 12 13 14 15 16 17 18 19 20 21 22 23 24 25 26 27 28 29 30 31 32 33 34 35 36 37 38 39 40 41 42 43 44 45 46 47 48 49 50

000
ASUS43 KDMX 080308
RWRIA

WEATHER ROUNDUP FOR IOWA
NATIONAL WEATHER SERVICE DES MOINES IA
900 PM CST SUN FEB 07 2016

NOTE: "FAIR" INDICATES FEW OR NO CLOUDS BELOW 12,000 FEET WITH NO
SIGNIFICANT WEATHER AND/OR OBSTRUCTIONS TO VISIBILITY.

* - THESE STATIONS ARE NOT NWS STATIONS...THUS NOT UNDER NWS
QUALITY CONTROL.  THEY ALSO DO NOT REPORT WEATHER SUCH
AS PRECIPITATION OR FOG.

IAZ001>003-012>014-020>022-031>034-043>046-080400-
   NORTHWEST IOWA

CITY           SKY/WX    TMP DP  RH WIND       PRES   REMARKS
CARROLL *      MIX PCPN  30  23  74 NW32G44   29.88S WCI  15
CHEROKEE *     CLOUDY    27  19  74 NW24G46   29.92R WCI  12
DENISON *      MIX PCPN  30  21  69 NW29G40   29.92R WCI  15
LE MARS *      LGT SNOW  27  27 100 N15G22    29.97S WCI  15
ORANGE CITY *  LGT SNOW  25  23  93 NW21G26   29.93S WCI  10
SHELDON *      LGT SNOW  23  19  86 NW26G35   29.91R WCI   6
SIOUX CITY     LGT SNOW  31  26  82 NW28G35   29.97R WCI  17
SPENCER        LGT SNOW  25  18  74 NW23G40   29.87R WCI  10
STORM LAKE *   FLURRIES  27  23  86 NW25G37   29.88R WCI  11
$$

IAZ055>058-069>071-079>083-090>094-080400-
   SOUTHWEST IOWA

CITY           SKY/WX    TMP DP  RH WIND       PRES   REMARKS
ATLANTIC *     CLOUDY    32  25  74 NW22G32   29.94R WCI  19
AUDUBON *      CLOUDY    30  23  74 NW21G32   29.92R WCI  17
CLARINDA *     MIX PCPN  34  28  80 NW18G26   29.99R WCI  23
COUNCIL BLFS * FLURRIES  32  28  86 NW16G24   29.97R WCI  21
CRESTON *      CLOUDY    32  27  80 NW24      29.91R WCI  19
HARLAN  *      MIX PCPN  32  25  74 NW32G41   29.98R WCI  17
LAMONI         CLOUDY    34  29  82 NW22G29   29.89F WCI  22
RED OAK *      MOCLDY    34  28  80 NW16G28   29.97S WCI  23
SHENANDOAH *   CLOUDY    36  28  75 NW16G24   30.00S WCI  26
$$

IAZ047>049-059>061-072>074-084-080400-
   CENTRAL IOWA

CITY           SKY/WX    TMP DP  RH WIND       PRES   REMARKS
AMES           CLOUDY    33  28  81 NW21G28   29.82F WCI  21
ANKENY *       CLOUDY    34  30  86 NW22G28   29.84S WCI  22
BOONE *        LGT SNOW  32  30  93 NW25G35   29.82S WCI  19
CHARITON *     MIX PCPN  34  30  86 W13       29.85F WCI  25
DES MOINES     FLURRIES  34  29  82 NW22G28   29.85S WCI  22
GRINNELL*      FLURRIES  34  32  93 W17       29.80S WCI  23
KNOXVILLE *    MIX PCPN  34  30  86 W16       29.82F WCI  23
MARSHALLTOWN   CLOUDY    33  30  88 NW25G31   29.78S WCI  20
NEWTON *       MIX PCPN  34  32  93 NW16      29.81S WCI  23
PELLA *        CLOUDY    36  30  80 W12G20    29.84F WCI  27
$$

IAZ004>006-015-016-023>025-035-036-080400-
   NORTH CENTRAL IOWA

CITY           SKY/WX    TMP DP  RH WIND       PRES   REMARKS
ALGONA *       LGT SNOW  27  25  93 NW29G35   29.82R VSB 1   WCI  11
CLARION *      CLOUDY    30  27  86 NW29      29.80S WCI  15
ESTHERVILLE    SNOW      24  21  88 NW26G37   29.84R VSB 1/4 WCI   8
FORT DODGE *   CLOUDY    30  23  74 NW17G24   29.84S WCI  18
MASON CITY     MIX PCPN  28  24  85 NW26G35   29.78R FOG     WCI  13
FOREST CITY *  CLOUDY    28  23  80 NW22G32   29.78R WCI  15
WEBSTER CITY * LGT SNOW  30  30 100 NW28      29.80S WCI  16
IOWA FALLS *   LGT SNOW  32  30  93 NW28      29.79S WCI  18
$$

IAZ007>011-017>019-026>030-037>042-050>054-066-080400-
   NORTHEAST IOWA

CITY           SKY/WX    TMP DP  RH WIND       PRES   REMARKS
CEDAR RAPIDS   LGT SNOW  33  32  96 W15       29.75F FOG     WCI  23
CHARLES CITY * LGT SNOW  32  32 100 NW30      29.74R WCI  18
CLINTON *      CLEAR     33  28  81 W15       29.75F WCI  23
DECORAH *      LGT SNOW  34  34 100 W8G16     29.67S WCI  27
DUBUQUE        CLOUDY    33  28  81 W15       29.70F WCI  23
MONTICELLO *   MOCLDY    34  30  86 W10       29.73F WCI  26
OELWEIN *      CLOUDY    34  34 100 W17       29.71F WCI  23
WATERLOO       CLOUDY    34  29  82 W20G29    29.74F WCI  23
$$

IAZ064-065-067-068-078-080400-
   EAST CENTRAL IOWA

CITY           SKY/WX    TMP DP  RH WIND       PRES   REMARKS
DAVENPORT      CLEAR     33  27  78 W13       29.77F WCI  24
IOWA CITY      MOCLDY    34  29  82 W10       29.80F WCI  26
MT. PLEASANT * PTCLDY    37  30  75 W8        29.82F WCI  31
MUSCATINE *    MOCLDY    36  28  75 W12       29.80F WCI  27
QUAD CITIES    CLEAR     35  26  69 W14       29.77F WCI  26
$$

IAZ062-063-075>077-085>089-095>099-080400-
   SOUTHEAST IOWA

CITY           SKY/WX    TMP DP  RH WIND       PRES   REMARKS
BURLINGTON     MOCLDY    36  28  73 W12       29.81F WCI  28
FAIRFIELD *    CLOUDY    34  30  86 W13       29.82F WCI  25
FORT MADISON * MOCLDY    36  28  75 W13       29.84S WCI  27
KEOKUK *       PTCLDY    36  28  75 W6        29.83F WCI  31
OSKALOOSA *    CLOUDY    34  30  86 W14       29.82F WCI  24
CENTERVILLE *    N/A    N/A N/A N/A MISG        N/A
OTTUMWA        CLOUDY    34  31  88 W13       29.82F WCI  25
WASHINGTON *   CLOUDY    34  30  86 W10       29.81F WCI  26
$$

ABBREVIATIONS USED IN REMARKS
   TC - TEMPERATURES IN CELSIUS
  WCI - WIND CHILL INDEX
   HX - HEAT INDEX
  VSB - VISIBILITY
$$




USA.gov is the U.S. government's official web portal to all federal, state and local government web resources and services.